Vertical_Velocity
0 0 -0 -0 -1 -1 -1 -1 0 -0 -1 -1 0 -0 -1 -1 -0 -0 -0 -0 -1 -2 -2 -1 1 -1 1 1 -0 -1 -1 -1 1
1 -1 -1 -0 -1 -1 -0 -0 -1 -1 -2 -1 0 -2 -2 0 -0 1 -1 -2 -1 -1 0 1 -0 -1 -1 -0 -1 1 -2 -3 0
-1 -1 -1 1 -2 -1 -0 -1 0 0 -1 -2 -0 -0 -2 -2 -2 -2 -1 -1 -2 -2 -2 -1 -2 -1 -2 -2 -0 -0 -0 0 -3
-2 -4 -2 0 -1 0 0 1 1 0 -0 -0 -0 0 -0 0 -0 -1 -1 -1 -1 -2 -3 0 -0 0 -0 -1 -0 -1 0 -3 1
-1 -2 -2 -2 -4 -3 -3 -2 -1 -1 -1 -4 -3 -2 -4 -2 -4 -2 -1 -2 -1 -1 -0 -0 -1 -2 -1 -2 -2 -2 -1 1 -1
1 1 1 -1 -2 -3 -1 -1 -1 -1 -2 -2 -1 1 -0 1 -1 -1 0 1 -0 0 -1 -1 -0 -0 -1 -0 -0 1 -0 1 -2
3 2 1 -1 -1 1 -0 -1 0 -0 0 0 1 0 -0 -1 -1 -1 -1 -1 -0 1 0 0 0 -0 0 0 -0 -2 -2 -2 1
1 1 -0 -0 0 1 1 0 -1 -1 -1 0 1 0 1 0 1 -0 -0 -1 -4 -0 1 1 -1 -1 -1 -0 -0 0 -0 -2 -2
1 0 0 -0 0 0 -1 -1 -0 -0 -0 1 1 -0 -0 -0 -1 -0 0 -1 -3 -1 -1 -1 0 -1 0 -1 -1 -1 -1 -0 -1
0 0 -0 -0 1 0 0 -0 1 -0 0 0 -1 -2 -1 -2 -1 0 1 0 -1 -1 0 1 0 -0 -1 1 -1 -3 -0 -1 0
-0 -0 -1 -0 -0 -1 -1 -2 0 0 -0 -2 -1 -2 -1 -1 -3 -1 0 1 2 1 -1 -0 -1 -0 3 -3 -1 -1 -1 -1 -1
-0 -0 1 -1 -1 -1 -1 -1 -0 0 -1 1 -2 -1 -2 -0 -1 -2 -1 -2 0 1 1 -1 -1 1 -2 0 0 1 1 2 0
1 -1 1 -1 -1 -0 0 -0 -1 0 -0 1 -1 0 -1 0 -1 -1 -1 -1 -1 -1 -1 -1 -1 -0 1 -2 -1 -0 1 -1 1
-1 0 1 -1 -1 -1 -0 1 -1 1 1 -1 -1 1 -1 1 -1 1 0 -0 1 0 0 -0 -1 -0 -1 -2 -2 -2 -1 1 -1
-2 0 3 1 -1 1 0 -0 1 -1 1 1 -1 0 1 -0 -0 -1 1 5 3 0 0 0 0 -1 -0 -2 -1 0 -3 -1 3
-1 -1 1 2 1 1 1 1 0 2 2 -5 4 1 2 1 2 2 -1 2 3 2 2 1 0 -0 1 1 1 -0 0 -3 -4
-1 0 1 1 0 1 2 1 -1 -0 2 -3 -1 -6 2 6 3 3 1 1 -1 0 1 2 1 -1 -2 0 -0 1 0 -1 -1
-1 -0 -0 0 1 1 1 2 -0 -1 0 2 -2 -6 -3 -1 1 0 0 3 2 2 -1 -1 -2 -0 -1 1 1 -0 1 -0 -1
-0 0 0 0 -1 -0 1 1 1 1 1 -1 1 -1 -2 -2 -3 -5 -3 -4 -2 -1 0 1 0 1 0 -1 1 1 1 1 0
-1 -0 1 2 1 -0 0 0 0 -0 -1 -0 -1 -1 -0 0 0 1 2 1 -2 -3 -0 0 0 -2 -2 2 1 1 1 -0 1
Height
3210 3210 3210 3210 3210 3210 3210 3210 3210 3210 3210 3210 3210 3210 3209 3209 3208 3208 3207 3206 3205 3203 3202 3201 3200 3199 3198 3197 3196 3195 3194 3192 3192
3212 3212 3212 3212 3212 3212 3213 3213 3212 3212 3212 3212 3212 3211 3211 3210 3210 3209 3208 3206 3205 3204 3202 3201 3200 3199 3197 3196 3195 3194 3193 3192 3191
3214 3214 3214 3214 3214 3214 3214 3214 3214 3213 3213 3213 3213 3213 3212 3212 3211 3210 3209 3208 3206 3204 3203 3201 3200 3198 3196 3195 3194 3193 3192 3192 3190
3216 3215 3215 3215 3216 3215 3216 3215 3215 3215 3215 3215 3214 3214 3213 3212 3212 3211 3209 3208 3206 3204 3203 3201 3200 3198 3196 3195 3193 3192 3191 3190 3189
3215 3215 3216 3216 3216 3216 3216 3216 3216 3216 3215 3215 3214 3213 3213 3212 3211 3210 3209 3208 3206 3205 3204 3202 3200 3198 3196 3194 3193 3191 3190 3189 3187
3214 3215 3215 3216 3216 3216 3215 3215 3215 3215 3215 3214 3213 3213 3212 3211 3210 3209 3208 3207 3206 3204 3203 3201 3199 3197 3195 3194 3192 3190 3189 3187 3186
3213 3214 3214 3214 3214 3214 3214 3214 3214 3213 3214 3213 3212 3211 3210 3209 3208 3207 3206 3205 3204 3203 3201 3199 3198 3196 3194 3192 3190 3189 3187 3186 3184
3211 3212 3212 3212 3212 3212 3212 3211 3211 3211 3211 3210 3210 3209 3208 3207 3205 3204 3203 3202 3201 3200 3198 3197 3195 3193 3192 3190 3189 3187 3185 3184 3183
3209 3209 3209 3209 3209 3209 3209 3208 3208 3208 3207 3207 3206 3206 3205 3204 3202 3200 3199 3198 3197 3196 3195 3193 3192 3191 3189 3188 3186 3185 3183 3182 3180
3206 3206 3206 3206 3206 3205 3205 3205 3204 3204 3204 3203 3202 3202 3201 3200 3198 3196 3195 3194 3192 3191 3190 3190 3189 3187 3186 3185 3184 3182 3181 3180 3178
3202 3202 3202 3202 3201 3201 3201 3201 3200 3200 3199 3198 3197 3196 3195 3195 3194 3192 3191 3190 3188 3187 3186 3185 3184 3183 3182 3181 3180 3179 3178 3176 3175
3198 3198 3198 3197 3197 3197 3197 3196 3196 3196 3194 3193 3192 3190 3189 3189 3188 3187 3186 3185 3184 3182 3181 3179 3178 3177 3176 3176 3174 3173 3173 3172 3171
3193 3193 3193 3193 3192 3192 3192 3192 3192 3191 3189 3188 3187 3185 3184 3183 3182 3182 3181 3179 3178 3177 3176 3174 3172 3171 3170 3169 3168 3168 3167 3166 3166
3189 3189 3189 3188 3187 3187 3187 3187 3185 3185 3184 3182 3182 3180 3179 3177 3176 3176 3175 3174 3173 3171 3170 3168 3166 3165 3164 3163 3162 3161 3161 3160 3159
3184 3184 3184 3183 3182 3182 3181 3180 3179 3178 3177 3175 3175 3174 3172 3170 3169 3170 3169 3168 3166 3165 3163 3161 3160 3158 3157 3156 3155 3154 3153 3153 3153
3178 3178 3178 3177 3176 3175 3175 3173 3172 3172 3170 3166 3167 3166 3164 3163 3162 3161 3161 3161 3159 3158 3156 3154 3153 3152 3150 3150 3149 3147 3146 3145 3145
3170 3170 3170 3169 3168 3168 3168 3166 3164 3163 3163 3159 3156 3153 3155 3155 3154 3153 3152 3152 3151 3150 3149 3147 3146 3144 3143 3142 3141 3140 3139 3138 3137
3162 3162 3162 3161 3160 3160 3159 3158 3156 3154 3154 3153 3150 3145 3143 3144 3145 3144 3144 3144 3144 3142 3140 3139 3138 3137 3135 3134 3133 3133 3131 3130 3130
3153 3153 3152 3152 3151 3150 3150 3149 3148 3146 3145 3144 3143 3141 3138 3135 3131 3132 3135 3135 3135 3134 3132 3132 3130 3129 3127 3126 3124 3123 3122 3122 3121
3144 3143 3143 3143 3142 3142 3141 3141 3140 3138 3137 3136 3135 3134 3131 3129 3126 3123 3124 3125 3125 3125 3124 3123 3122 3120 3118 3117 3115 3114 3113 3112 3111